Volver al catálogo

FENGYUN 1C DEB

ActivoSSO
NORAD 30689·DEBRIS·🇨🇳 China

Lanzado May 10, 1999 desde Taiyuan Satellite Launch Center

Loading…

Próximos Pases (próximas 24 horas)

TLE

ActualizadoSource: Space-Track

Época: Sep 14, 2026, 11:07 UTC

1 30689U 99025AQX 26257.46379846  .00000467  00000-0  26180-3 0  9997
2 30689  98.7338 241.2374 0111209  40.0718 110.5982 14.12158042  7734

Sigue FENGYUN 1C DEB en tiempo real con AllMySat

Download on the App Store